Regional Weather Roundup
Issued by NWS

Home | Current Version | Previous Version | Graphics & Text | Print | Product List | Glossary Off
Versions: 1 2 3 4 5 6 7 8 9 10 11 12 13 14 15 16 17 18 19 20 21 22 23 24 25 26 27 28 29 30 31 32 33 34 35 36 37 38 39 40 41 42 43 44 45 46 47 48 49 50

000
ASUS43 KMPX 270210
RWRMN
WEATHER ROUNDUP FOR MINNESOTA
NATIONAL WEATHER SERVICE TWIN CITIES/CHANHASSEN MN
800 PM CST THU FEB 26 2015


NOTE: "FAIR" INDICATES FEW OR NO CLOUDS BELOW 12,000 FEET WITH NO
SIGNIFICANT WEATHER AND/OR OBSTRUCTIONS TO VISIBILITY. N/A MEANS
CURRENT SKY AND/OR WEATHER CONDITIONS ARE NOT AVAILABLE.

MNZ060>063-068>070-270300-
   Twin Cities Metro

CITY           SKY/WX    TMP DP  RH WIND       PRES   REMARKS
TWIN CITIES    CLEAR      5  -8  55 NW9       30.47R WCI  -9
ST PAUL        CLEAR      5  -7  57 NW7       30.49R WCI  -7
CRYSTAL        CLEAR      6  -7  54 NW7       30.47R WCI  -6
BLAINE         CLEAR      3  -6  66 W6        30.46S WCI  -8
LAKEVILLE      FAIR      -2  -9  71 W7        30.46R WCI -16
EDEN PRAIRIE   CLEAR      3  -8  60 W5        30.47R WCI  -6
SOUTH ST PAUL  CLEAR      6  -7  54 CALM      30.47S
LAKE ELMO      FAIR       5  -6  61 NW3       30.46S
$$
MNZ001>005-007-008-013>017-022>024-027-028-270300-
   Northwest Minnesota

CITY           SKY/WX    TMP DP  RH WIND       PRES   REMARKS
BEMIDJI        CLEAR     -6 -12  73 W6        30.42S WCI -18
HALLOCK        CLEAR     -2  -9  71 W7        30.49S WCI -16
ROSEAU         CLEAR      0  -8  71 W7        30.44F WCI -13
WARROAD        CLEAR      0  -9  65 W10       30.43S WCI -17
THIEF RVR FALL CLEAR      0  -9  65 W6        30.46F WCI -12
CROOKSTON      CLEAR     -4  -9  77 W9        30.51F WCI -20
FOSSTON        CLEAR     -9 -15  77 CALM      30.46F
DETROIT LAKES  CLEAR      1  -4  78 W7        30.46S WCI -11
MOORHEAD       CLEAR      1  -4  78 NW8       30.53S WCI -12
PARK RAPIDS    CLEAR     -8 -15  71 W6        30.42S WCI -21
MAHNOMEN       FAIR      -3  -7  83 W3        30.47S
$$
MNZ006-009>011-018-025>026-270300-
   North Central Minnesota

CITY           SKY/WX    TMP DP  RH WIND       PRES   REMARKS
BAUDETTE       CLEAR     -1 -10  65 W9        30.38S WCI -16
FLAG ISLAND    CLEAR      0  -9  65 W10       30.40S WCI -17
INTL FALLS     CLEAR    -11 -18  71 W3        30.37F
WASKISH        CLEAR     -4  -9  77 SW8       30.42S WCI -19
BIG FORK       CLEAR     -2 -13  60 W3        30.39S
LONGVILLE      CLEAR     -2 -11  65 NW6       30.42S WCI -14
GRAND RAPIDS   CLEAR      0 -11  60 W6        30.37S WCI -12
CRANE LAKE     CLEAR     -9 -18  64 CALM      30.40S
ORR            CLEAR     -6 -17  59 CALM      30.34S
COOK           CLEAR     -2 -15  55 W5        30.37R WCI -12
WALKER         FAIR      -4 -14  62 W3        30.43R
$$
MNZ012-019>021-037-270300-
   Northeast Minnesota

CITY           SKY/WX    TMP DP  RH WIND       PRES   REMARKS
DULUTH         CLEAR      2 -12  52 NW10      30.33S WCI -14
ELY            CLEAR     -4 -17  54 NW5       30.33S WCI -15
HIBBING        CLEAR      0 -14  51 W9        30.36S WCI -15
EVELETH        CLEAR      3 -13  47 W5        30.36S WCI  -6
DULUTH HARBOR  CLEAR      7  -8  51 W10       30.43S WCI  -8
TWO HARBORS    CLEAR      5  -9  51 W5        30.33S WCI  -4
SILVER BAY     CLEAR      3 -11  51 CALM      30.32S
GRAND MARAIS     N/A      3 -10  54 CALM      30.36R
G MARAIS ARPRT PTCLDY    -4 -17  54 NW7G17    30.22S WCI -18
$$
MNZ029>031-032-039>041-046>048-054>057-064-270300-
   West Central Minnesota

CITY           SKY/WX    TMP DP  RH WIND       PRES   REMARKS
FERGUS FALLS   PTCLDY    -2  -9  71 NW6       30.54S WCI -14
WHEATON        CLEAR     -4  -9  77 W6        30.56S WCI -16
MORRIS         CLEAR     -2  -8  78 W8        30.51R WCI -17
ALEXANDRIA     CLEAR     -3 -10  72 NW8       30.46S WCI -18
ELBOW LAKE     FAIR      -3  -8  76 NW6       30.50R WCI -15
WADENA         CLEAR     -4  -9  77 W5        30.45S WCI -15
GLENWOOD       CLEAR      0  -8  71 NW9       30.47S WCI -16
APPLETON       CLEAR      0  -8  71 W8        30.54S WCI -15
BENSON         CLEAR     -2  -8  78 NW9       30.51R WCI -18
ORTONVILLE     CLEAR     -2  -9  71 NW5       30.54R WCI -12
MADISON        PTCLDY    -2  -9  71 NW8       30.54S WCI -17
WILLMAR        FAIR       0  -9  65 NW9       30.50R WCI -16
$$
MNZ033>034-036-042>043-049>051-058-059-270300-
   Central Minnesota

CITY           SKY/WX    TMP DP  RH WIND       PRES   REMARKS
ST CLOUD       CLEAR      2  -8  63 NW10      30.45S WCI -14
SAUK CENTRE    FAIR       0  -8  69 NW9       30.47R WCI -16
PAYNESVILLE    CLEAR     -1  -9  69 W8        30.48R WCI -15
AITKIN         CLEAR     -2 -13  60 CALM      30.41S
PINE RIVER     CLEAR      0 -11  60 NW5       30.45S WCI -10
BRAINERD       CLEAR      2 -12  52 NW10      30.43R WCI -14
STAPLES        CLEAR     -4 -11  71 NW7       30.45R WCI -18
LONG PRAIRIE   FAIR       0  -8  71 W8        30.46R HAZE    WCI -15
LITTLE FALLS   CLEAR      1  -9  60 W7        30.46S WCI -11
LITCHFIELD     CLEAR      1  -8  66 CALM      30.48R
BUFFALO        CLEAR      5  -8  56 W5        30.48S WCI  -4
MAPLE LAKE     CLEAR      3  -6  67 W5        30.48R WCI  -6
$$
MNZ037-044-045-052-053-270300-
   East Central Minnesota

CITY           SKY/WX    TMP DP  RH WIND       PRES   REMARKS
PRINCETON      CLEAR      0  -9  65 CALM      30.45S
MORA           CLEAR      0 -13  55 NW5       30.45R WCI -10
CAMBRIDGE      CLEAR      1  -9  60 CALM      30.44R
RUSH CITY      PTCLDY     1 -11  57 W3        30.45R
MOOSE LAKE     PTCLDY     3 -11  51 CALM      30.40S
HINCKLEY       FAIR       3  -9  55 W6        30.43R WCI  -8
CLOQUET        CLEAR      1 -13  51 W8        30.37S WCI -12
MCGREGOR       CLEAR      1  -9  60 W5        30.41S WCI  -8
$$
MNZ071>073-080-081-089-090-097-098-270300-
   Southwest Minnesota

CITY           SKY/WX    TMP DP  RH WIND       PRES   REMARKS
MONTEVIDEO     CLEAR     -2  -8  78 NW6       30.54S WCI -14
GRANITE FALLS  CLEAR     -3  -9  76 W12       30.54S WCI -21
CANBY          CLEAR     -8 -13  77 W7        30.55R WCI -22
MARSHALL       CLEAR     -8 -13  77 NW7       30.53R WCI -22
REDWOOD FALLS  CLEAR     -2  -9  72 W12       30.51S WCI -20
OLIVIA         CLEAR      0  -6  78 NW9       30.50S WCI -16
PIPESTONE      CLEAR     -2  -8  78 NW8       30.47S WCI -17
WINDOM         CLEAR     -6 -11  77 W8        30.49R WCI -21
WORTHINGTON    CLEAR     21 -17  18 NW8       30.49S WCI  12
JACKSON        CLEAR     -4  -9  77 NW8       30.48S WCI -19
TRACY          CLEAR     -3  -8  78 NW8       30.51R WCI -18
SLAYTON        CLEAR     -6 -13  71 CALM      30.48R
$$
MNZ065>067-074>077-082>085-091>093-270300-
   South Central Minnesota

CITY           SKY/WX    TMP DP  RH WIND       PRES   REMARKS
MANKATO        FAIR       0 -13  55 NW9       30.48S WCI -16
NEW ULM        CLEAR     -6 -11  77 W10       30.51R WCI -23
ST JAMES       CLEAR     -2  -9  71 W9        30.52R WCI -18
FAIRMONT       CLEAR     -2 -11  65 NW12      30.47S WCI -20
GLENCOE        CLEAR      1  -5  73 W8        30.48R WCI -12
FARIBAULT      CLEAR      0  -8  71 W7        30.47R WCI -13
OWATONNA       CLEAR     -2  -9  71 W10       30.46S WCI -19
WASECA         CLEAR     -2  -9  71 W9        30.49R WCI -18
ALBERT LEA     CLEAR     -2  -9  71 NW7       30.46R WCI -16
$$
MNZ078>079-086>088-094>096-270300-
   Southeast Minnesota

CITY           SKY/WX    TMP DP  RH WIND       PRES   REMARKS
ROCHESTER      CLEAR     -4 -11  72 W13       30.42R WCI -23
RED WING       CLEAR      1 -11  55 CALM      30.46S
STANTON        CLEAR      2  -7  66 W7        30.46R WCI -10
DODGE CENTER   PTCLDY     0  -8  71 W10       30.42S WCI -17
WINONA         CLEAR      3  -8  60 NW5       30.48R WCI  -6
AUSTIN         CLEAR     -2  -8  78 NW12      30.44S WCI -20
PRESTON        FAIR      -4 -11  71 NW10      30.42S WCI -21
$$
ABBREVIATIONS USED IN REMARKS
   TC - TEMPERATURES IN CELSIUS
  WCI - WIND CHILL INDEX
   HX - HEAT INDEX
  VSB - VISIBILITY
$$



USA.gov is the U.S. government's official web portal to all federal, state and local government web resources and services.